Time,TemperatureF,DewpointF,PressureIn,WindDirection,WindDirectionDegrees,WindSpeedMPH,WindSpeedGustMPH,Humidity,HourlyPrecipIn,Conditions,Clouds,dailyrainin,SoftwareType,DateUTC
2013-06-19 00:02:00,66.0,55.0,-100.00,SSE,155,0.0,0.0,67,0.00,,,-99.99,,2013-06-19 04:02:00,
2013-06-19 00:11:00,65.0,54.0,-100.00,SE,145,0.0,0.0,68,0.00,,,-99.99,,2013-06-19 04:11:00,
2013-06-19 00:22:00,65.0,54.0,-100.00,SE,145,0.0,0.0,68,0.00,,,-99.99,,2013-06-19 04:22:00,
2013-06-19 00:32:00,65.0,54.0,-100.00,SE,145,0.0,0.0,69,0.00,,,-99.99,,2013-06-19 04:32:00,
2013-06-19 00:42:00,64.0,54.0,-100.00,SSE,155,0.0,0.0,69,0.00,,,-99.99,,2013-06-19 04:42:00,
2013-06-19 00:53:00,64.0,54.0,-100.00,SSE,155,0.0,0.0,69,0.00,,,-99.99,,2013-06-19 04:53:00,
2013-06-19 01:01:00,64.0,54.0,-100.00,SSE,155,0.0,0.0,70,0.00,,,-99.99,,2013-06-19 05:01:00,
2013-06-19 01:11:00,63.0,54.0,-100.00,SE,145,0.0,0.0,70,0.00,,,-99.99,,2013-06-19 05:11:00,
2013-06-19 01:23:00,63.0,54.0,-100.00,SE,145,0.0,0.0,71,0.00,,,-99.99,,2013-06-19 05:23:00,
2013-06-19 01:32:00,63.0,54.0,-100.00,SSE,150,0.0,0.0,72,0.00,,,-99.99,,2013-06-19 05:32:00,
2013-06-19 01:42:00,62.0,53.0,-100.00,SE,140,0.0,0.0,72,0.00,,,-99.99,,2013-06-19 05:42:00,
2013-06-19 01:52:00,62.0,53.0,-100.00,SE,135,0.0,0.0,73,0.00,,,-99.99,,2013-06-19 05:52:00,
2013-06-19 02:02:00,62.0,53.0,-100.00,SE,130,0.0,0.0,73,0.00,,,-99.99,,2013-06-19 06:02:00,
2013-06-19 02:11:00,61.0,53.0,-100.00,SE,130,0.0,0.0,74,0.00,,,-99.99,,2013-06-19 06:11:00,
2013-06-19 02:22:00,61.0,53.0,-100.00,SE,130,0.0,0.0,74,0.00,,,-99.99,,2013-06-19 06:22:00,
2013-06-19 02:34:00,61.0,53.0,-100.00,SE,145,0.0,0.0,74,0.00,,,-99.99,,2013-06-19 06:34:00,
2013-06-19 02:42:00,61.0,53.0,-100.00,SE,130,0.0,0.0,76,0.00,,,-99.99,,2013-06-19 06:42:00,
2013-06-19 02:52:00,60.0,53.0,-100.00,SE,125,0.0,0.0,76,0.00,,,-99.99,,2013-06-19 06:52:00,
2013-06-19 03:01:00,60.0,53.0,-100.00,ESE,115,0.0,0.0,77,0.00,,,-99.99,,2013-06-19 07:01:00,
2013-06-19 03:11:00,60.0,53.0,-100.00,ESE,120,0.0,0.0,78,0.00,,,-99.99,,2013-06-19 07:11:00,
2013-06-19 03:22:00,60.0,53.0,-100.00,SE,135,0.0,0.0,79,0.00,,,-99.99,,2013-06-19 07:22:00,
2013-06-19 03:33:00,59.0,53.0,-100.00,SE,130,0.0,0.0,80,0.00,,,-99.99,,2013-06-19 07:33:00,
2013-06-19 03:43:00,59.0,53.0,-100.00,ESE,115,0.0,0.0,81,0.00,,,-99.99,,2013-06-19 07:43:00,
2013-06-19 03:53:00,58.0,53.0,-100.00,SE,130,0.0,0.0,82,0.00,,,-99.99,,2013-06-19 07:53:00,
2013-06-19 04:02:00,58.0,53.0,-100.00,ESE,110,0.0,0.0,82,0.00,,,-99.99,,2013-06-19 08:02:00,
2013-06-19 04:11:00,58.0,53.0,-100.00,SE,130,0.0,0.0,82,0.00,,,-99.99,,2013-06-19 08:11:00,
2013-06-19 04:22:00,58.0,53.0,-100.00,SE,130,0.0,0.0,82,0.00,,,-99.99,,2013-06-19 08:22:00,
2013-06-19 04:34:00,58.0,53.0,-100.00,SE,145,0.0,0.0,82,0.00,,,-99.99,,2013-06-19 08:34:00,
2013-06-19 04:43:00,58.0,53.0,-100.00,ESE,105,0.0,0.0,84,0.00,,,-99.99,,2013-06-19 08:43:00,
2013-06-19 04:53:00,57.0,53.0,-100.00,East,100,0.0,0.0,84,0.00,,,-99.99,,2013-06-19 08:53:00,
2013-06-19 05:02:00,57.0,53.0,-100.00,SE,125,0.0,0.0,84,0.00,,,-99.99,,2013-06-19 09:02:00,
2013-06-19 05:12:00,58.0,52.0,-100.00,SE,135,0.0,0.0,82,0.00,,,-99.99,,2013-06-19 09:12:00,
2013-06-19 05:22:00,57.0,52.0,-100.00,ESE,105,0.0,0.0,84,0.00,,,-99.99,,2013-06-19 09:22:00,
2013-06-19 05:34:00,57.0,52.0,-100.00,ESE,105,0.0,0.0,84,0.00,,,-99.99,,2013-06-19 09:34:00,
2013-06-19 05:43:00,57.0,52.0,-100.00,ESE,105,0.0,0.0,84,0.00,,,-99.99,,2013-06-19 09:43:00,
2013-06-19 05:53:00,57.0,52.0,-100.00,SSE,150,0.0,0.0,83,0.00,,,-99.99,,2013-06-19 09:53:00,
2013-06-19 06:02:00,57.0,52.0,-100.00,SE,130,0.0,0.0,84,0.00,,,-99.99,,2013-06-19 10:02:00,
2013-06-19 06:12:00,56.0,52.0,-100.00,SSE,165,0.0,0.0,85,0.00,,,-99.99,,2013-06-19 10:12:00,
2013-06-19 06:22:00,56.0,52.0,-100.00,SSE,160,0.0,0.0,84,0.00,,,-99.99,,2013-06-19 10:22:00,
2013-06-19 06:33:00,56.0,52.0,-100.00,SE,135,0.0,0.0,84,0.00,,,-99.99,,2013-06-19 10:33:00,
2013-06-19 06:42:00,56.0,52.0,-100.00,ESE,115,0.0,0.0,84,0.00,,,-99.99,,2013-06-19 10:42:00,
2013-06-19 06:52:00,57.0,52.0,-100.00,South,180,0.0,0.0,84,0.00,,,-99.99,,2013-06-19 10:52:00,
2013-06-19 07:02:00,57.0,52.0,-100.00,SSW,200,0.0,0.0,83,0.00,,,-99.99,,2013-06-19 11:02:00,
2013-06-19 07:11:00,58.0,52.0,-100.00,South,185,0.0,0.0,81,0.00,,,-99.99,,2013-06-19 11:11:00,
2013-06-19 07:22:00,58.0,52.0,-100.00,SSE,165,0.0,0.0,80,0.00,,,-99.99,,2013-06-19 11:22:00,
2013-06-19 07:33:00,58.0,52.0,-100.00,SSE,165,0.0,0.0,80,0.00,,,-99.99,,2013-06-19 11:33:00,
2013-06-19 07:42:00,58.0,52.0,-100.00,SSE,165,0.0,0.0,80,0.00,,,-99.99,,2013-06-19 11:42:00,
2013-06-19 07:54:00,60.0,53.0,-100.00,ESE,115,0.0,0.0,76,0.00,,,-99.99,,2013-06-19 11:54:00,
2013-06-19 08:02:00,61.0,51.0,-100.00,SSE,165,0.0,0.0,71,0.00,,,-99.99,,2013-06-19 12:02:00,
2013-06-19 08:12:00,62.0,51.0,-100.00,South,190,0.0,0.0,66,0.00,,,-99.99,,2013-06-19 12:12:00,
2013-06-19 08:22:00,62.0,50.0,-100.00,South,185,0.0,0.0,65,0.00,,,-99.99,,2013-06-19 12:22:00,
2013-06-19 08:34:00,62.0,50.0,-100.00,SSW,195,0.0,0.0,65,0.00,,,-99.99,,2013-06-19 12:34:00,
2013-06-19 08:44:00,63.0,50.0,-100.00,South,175,0.0,0.0,63,0.00,,,-99.99,,2013-06-19 12:44:00,
2013-06-19 08:53:00,64.0,51.0,-100.00,SSW,195,0.0,0.0,63,0.00,,,-99.99,,2013-06-19 12:53:00,
2013-06-19 09:02:00,64.0,51.0,-100.00,SSW,195,0.0,0.0,63,0.00,,,-99.99,,2013-06-19 13:02:00,
2013-06-19 09:12:00,64.0,51.0,-100.00,SSW,205,0.0,0.0,63,0.00,,,-99.99,,2013-06-19 13:12:00,
2013-06-19 09:22:00,64.0,50.0,-100.00,South,175,0.0,0.0,61,0.00,,,-99.99,,2013-06-19 13:22:00,
2013-06-19 09:33:00,65.0,51.0,-100.00,South,180,0.0,0.0,61,0.00,,,-99.99,,2013-06-19 13:33:00,
2013-06-19 09:42:00,66.0,52.0,-100.00,SSW,205,0.0,0.0,60,0.00,,,-99.99,,2013-06-19 13:42:00,
2013-06-19 09:53:00,66.0,51.0,-100.00,South,185,0.0,0.0,58,0.00,,,-99.99,,2013-06-19 13:53:00,
2013-06-19 10:02:00,66.0,52.0,-100.00,SSW,195,0.0,0.0,59,0.00,,,-99.99,,2013-06-19 14:02:00,
2013-06-19 10:12:00,66.0,52.0,-100.00,SSW,195,0.0,0.0,59,0.00,,,-99.99,,2013-06-19 14:12:00,
2013-06-19 10:22:00,67.0,53.0,-100.00,South,185,0.0,0.0,59,0.00,,,-99.99,,2013-06-19 14:22:00,
2013-06-19 10:33:00,67.0,53.0,-100.00,South,180,0.0,0.0,60,0.00,,,-99.99,,2013-06-19 14:33:00,
2013-06-19 10:44:00,67.0,53.0,-100.00,SSE,160,0.0,0.0,59,0.00,,,-99.99,,2013-06-19 14:44:00,
2013-06-19 10:52:00,69.0,54.0,-100.00,South,180,0.0,0.0,59,0.00,,,-99.99,,2013-06-19 14:52:00,
2013-06-19 11:02:00,69.0,54.0,-100.00,SSW,205,0.0,0.0,58,0.00,,,-99.99,,2013-06-19 15:02:00,
2013-06-19 11:11:00,68.0,54.0,-100.00,SSE,155,0.0,0.0,59,0.00,,,-99.99,,2013-06-19 15:11:00,
2013-06-19 11:22:00,69.0,54.0,-100.00,South,180,0.0,0.0,58,0.00,,,-99.99,,2013-06-19 15:22:00,
2013-06-19 11:33:00,69.0,54.0,-100.00,SSW,200,0.0,0.0,57,0.00,,,-99.99,,2013-06-19 15:33:00,
2013-06-19 11:42:00,69.0,54.0,-100.00,SSW,200,0.0,0.0,57,0.00,,,-99.99,,2013-06-19 15:42:00,
2013-06-19 11:53:00,70.0,53.0,-100.00,SW,215,0.0,0.0,53,0.00,,,-99.99,,2013-06-19 15:53:00,
2013-06-19 12:01:00,71.0,52.0,-100.00,SE,145,0.0,0.0,51,0.00,,,-99.99,,2013-06-19 16:01:00,
2013-06-19 12:11:00,71.0,52.0,-100.00,SE,145,0.0,0.0,51,0.00,,,-99.99,,2013-06-19 16:11:00,
2013-06-19 12:22:00,71.0,53.0,-100.00,South,175,0.0,0.0,52,0.00,,,-99.99,,2013-06-19 16:22:00,
2013-06-19 12:34:00,71.0,52.0,-100.00,South,175,0.0,0.0,50,0.00,,,-99.99,,2013-06-19 16:34:00,
2013-06-19 12:43:00,72.0,51.0,-100.00,ESE,120,0.0,0.0,48,0.00,,,-99.99,,2013-06-19 16:43:00,
2013-06-19 12:52:00,73.0,50.0,-100.00,SSW,195,0.0,0.0,45,0.00,,,-99.99,,2013-06-19 16:52:00,
2013-06-19 13:02:00,73.0,50.0,-100.00,SSW,195,0.0,0.0,45,0.00,,,-99.99,,2013-06-19 17:02:00,
2013-06-19 13:12:00,74.0,49.0,-100.00,South,175,0.0,0.0,42,0.00,,,-99.99,,2013-06-19 17:12:00,
2013-06-19 13:22:00,74.0,49.0,-100.00,WSW,245,0.0,0.0,41,0.00,,,-99.99,,2013-06-19 17:22:00,
2013-06-19 13:34:00,73.0,48.0,-100.00,SSE,155,0.0,0.0,41,0.00,,,-99.99,,2013-06-19 17:34:00,
2013-06-19 13:43:00,74.0,47.0,-100.00,South,185,0.0,0.0,38,0.00,,,-99.99,,2013-06-19 17:43:00,
2013-06-19 13:53:00,73.0,47.0,-100.00,NE,55,0.0,0.0,38,0.00,,,-99.99,,2013-06-19 17:53:00,
2013-06-19 14:02:00,73.0,47.0,-100.00,NE,55,0.0,0.0,38,0.00,,,-99.99,,2013-06-19 18:02:00,
2013-06-19 14:12:00,74.0,47.0,-100.00,SSW,210,0.0,0.0,38,0.00,,,-99.99,,2013-06-19 18:12:00,
2013-06-19 14:24:00,74.0,46.0,-100.00,SW,225,0.0,0.0,35,0.00,,,-99.99,,2013-06-19 18:24:00,
2013-06-19 14:33:00,74.0,46.0,-100.00,SW,225,0.0,0.0,35,0.00,,,-99.99,,2013-06-19 18:33:00,
2013-06-19 14:44:00,74.0,46.0,-100.00,SW,225,0.0,0.0,35,0.00,,,-99.99,,2013-06-19 18:44:00,
2013-06-19 14:53:00,76.0,46.0,-100.00,WSW,245,0.0,0.0,35,0.00,,,-99.99,,2013-06-19 18:53:00,
2013-06-19 15:01:00,76.0,48.0,-100.00,SW,215,0.0,0.0,36,0.00,,,-99.99,,2013-06-19 19:01:00,
2013-06-19 15:12:00,76.0,48.0,-100.00,SW,215,0.0,0.0,36,0.00,,,-99.99,,2013-06-19 19:12:00,
2013-06-19 15:22:00,76.0,46.0,-100.00,SSW,210,0.0,0.0,34,0.00,,,-99.99,,2013-06-19 19:22:00,
2013-06-19 15:32:00,76.0,45.0,-100.00,South,175,0.0,0.0,33,0.00,,,-99.99,,2013-06-19 19:32:00,
2013-06-19 15:43:00,76.0,43.0,-100.00,SSW,210,0.0,0.0,31,0.00,,,-99.99,,2013-06-19 19:43:00,
2013-06-19 15:52:00,77.0,44.0,-100.00,NW,305,0.0,0.0,30,0.00,,,-99.99,,2013-06-19 19:52:00,
2013-06-19 16:02:00,77.0,44.0,-100.00,NW,305,0.0,0.0,30,0.00,,,-99.99,,2013-06-19 20:02:00,
2013-06-19 16:11:00,77.0,44.0,-100.00,NW,305,0.0,0.0,30,0.00,,,-99.99,,2013-06-19 20:11:00,
2013-06-19 16:22:00,77.0,41.0,-100.00,SE,145,0.0,0.0,27,0.00,,,-99.99,,2013-06-19 20:22:00,
2013-06-19 16:33:00,76.0,45.0,-100.00,South,190,0.0,0.0,32,0.00,,,-99.99,,2013-06-19 20:33:00,
2013-06-19 16:42:00,76.0,45.0,-100.00,SE,140,0.0,0.0,33,0.00,,,-99.99,,2013-06-19 20:42:00,
2013-06-19 16:52:00,78.0,46.0,-100.00,SSW,195,0.0,0.0,32,0.00,,,-99.99,,2013-06-19 20:52:00,
2013-06-19 17:02:00,78.0,46.0,-100.00,SSW,195,0.0,0.0,32,0.00,,,-99.99,,2013-06-19 21:02:00,
2013-06-19 17:12:00,78.0,45.0,-100.00,West,270,0.0,0.0,31,0.00,,,-99.99,,2013-06-19 21:12:00,
2013-06-19 17:22:00,78.0,45.0,-100.00,SW,220,0.0,0.0,30,0.00,,,-99.99,,2013-06-19 21:22:00,
2013-06-19 17:33:00,78.0,44.0,-100.00,South,170,0.0,0.0,30,0.00,,,-99.99,,2013-06-19 21:33:00,
2013-06-19 17:44:00,78.0,46.0,-100.00,WNW,290,0.0,0.0,31,0.00,,,-99.99,,2013-06-19 21:44:00,
2013-06-19 17:52:00,78.0,43.0,-100.00,WNW,290,0.0,0.0,29,0.00,,,-99.99,,2013-06-19 21:52:00,
2013-06-19 18:02:00,78.0,43.0,-100.00,WNW,290,0.0,0.0,29,0.00,,,-99.99,,2013-06-19 22:02:00,
2013-06-19 18:11:00,77.0,45.0,-100.00,SSW,195,0.0,0.0,31,0.00,,,-99.99,,2013-06-19 22:11:00,
2013-06-19 18:22:00,78.0,45.0,-100.00,South,185,0.0,0.0,31,0.00,,,-99.99,,2013-06-19 22:22:00,
2013-06-19 18:34:00,78.0,43.0,-100.00,South,190,0.0,0.0,29,0.00,,,-99.99,,2013-06-19 22:34:00,
2013-06-19 18:43:00,78.0,43.0,-100.00,South,190,0.0,0.0,29,0.00,,,-99.99,,2013-06-19 22:43:00,
2013-06-19 18:53:00,78.0,47.0,-100.00,WSW,245,0.0,0.0,33,0.00,,,-99.99,,2013-06-19 22:53:00,
2013-06-19 19:02:00,77.0,47.0,-100.00,SSW,200,0.0,0.0,34,0.00,,,-99.99,,2013-06-19 23:02:00,
2013-06-19 19:12:00,77.0,47.0,-100.00,SSW,200,0.0,0.0,34,0.00,,,-99.99,,2013-06-19 23:12:00,
2013-06-19 19:23:00,77.0,47.0,-100.00,SSW,200,0.0,0.0,34,0.00,,,-99.99,,2013-06-19 23:23:00,
2013-06-19 19:33:00,77.0,47.0,-100.00,WSW,245,0.0,0.0,34,0.00,,,-99.99,,2013-06-19 23:33:00,
2013-06-19 19:43:00,78.0,47.0,-100.00,West,275,0.0,0.0,34,0.00,,,-99.99,,2013-06-19 23:43:00,
2013-06-19 19:52:00,76.0,48.0,-100.00,WSW,250,0.0,0.0,36,0.00,,,-99.99,,2013-06-19 23:52:00,
2013-06-19 20:01:00,76.0,48.0,-100.00,WSW,250,0.0,0.0,36,0.00,,,-99.99,,2013-06-20 00:01:00,
2013-06-19 20:12:00,75.0,47.0,-100.00,West,265,0.0,0.0,37,0.00,,,-99.99,,2013-06-20 00:12:00,
2013-06-19 20:22:00,75.0,47.0,-100.00,SW,225,0.0,0.0,37,0.00,,,-99.99,,2013-06-20 00:22:00,
2013-06-19 20:33:00,75.0,47.0,-100.00,WSW,245,0.0,0.0,37,0.00,,,-99.99,,2013-06-20 00:33:00,
2013-06-19 20:44:00,75.0,48.0,-100.00,SW,215,0.0,0.0,38,0.00,,,-99.99,,2013-06-20 00:44:00,
2013-06-19 20:52:00,74.0,47.0,-100.00,WSW,240,0.0,0.0,38,0.00,,,-99.99,,2013-06-20 00:52:00,
2013-06-19 21:02:00,74.0,47.0,-100.00,WSW,255,0.0,0.0,39,0.00,,,-99.99,,2013-06-20 01:02:00,
2013-06-19 21:11:00,73.0,48.0,-100.00,West,275,0.0,0.0,40,0.00,,,-99.99,,2013-06-20 01:11:00,
2013-06-19 21:22:00,73.0,48.0,-100.00,NW,325,0.0,0.0,41,0.00,,,-99.99,,2013-06-20 01:22:00,
2013-06-19 21:33:00,72.0,48.0,-100.00,SW,235,0.0,0.0,43,0.00,,,-99.99,,2013-06-20 01:33:00,
2013-06-19 21:44:00,72.0,48.0,-100.00,SW,235,0.0,0.0,43,0.00,,,-99.99,,2013-06-20 01:44:00,
2013-06-19 21:52:00,71.0,49.0,-100.00,North,0,0.0,0.0,45,0.00,,,-99.99,,2013-06-20 01:52:00,
2013-06-19 22:02:00,71.0,49.0,-100.00,North,0,0.0,0.0,45,0.00,,,-99.99,,2013-06-20 02:02:00,
2013-06-19 22:11:00,70.0,49.0,-100.00,SSW,200,0.0,0.0,47,0.00,,,-99.99,,2013-06-20 02:11:00,
2013-06-19 22:24:00,69.0,50.0,-100.00,SSW,200,0.0,0.0,51,0.00,,,-99.99,,2013-06-20 02:24:00,
2013-06-19 22:34:00,69.0,50.0,-100.00,SSW,200,0.0,0.0,51,0.00,,,-99.99,,2013-06-20 02:34:00,
2013-06-19 22:43:00,68.0,51.0,-100.00,SSW,205,0.0,0.0,53,0.00,,,-99.99,,2013-06-20 02:43:00,
2013-06-19 22:52:00,68.0,50.0,-100.00,SSW,210,0.0,0.0,53,0.00,,,-99.99,,2013-06-20 02:52:00,
2013-06-19 23:02:00,67.0,50.0,-100.00,SSW,205,0.0,0.0,54,0.00,,,-99.99,,2013-06-20 03:02:00,
2013-06-19 23:11:00,67.0,50.0,-100.00,SSW,205,0.0,0.0,54,0.00,,,-99.99,,2013-06-20 03:11:00,
2013-06-19 23:22:00,67.0,51.0,-100.00,SSW,205,0.0,0.0,56,0.00,,,-99.99,,2013-06-20 03:22:00,
2013-06-19 23:33:00,67.0,50.0,-100.00,SSW,210,0.0,0.0,54,0.00,,,-99.99,,2013-06-20 03:33:00,
2013-06-19 23:43:00,66.0,50.0,-100.00,SSW,195,0.0,0.0,56,0.00,,,-99.99,,2013-06-20 03:43:00,
2013-06-19 23:53:00,66.0,50.0,-100.00,SSW,195,0.0,0.0,55,0.00,,,-99.99,,2013-06-20 03:53:00,